Location: Doux
(49.5045°N, 4.4321°E)
Time: 01:35:41
(UTC+00:00)

ALOS - Pass Details

Date: 23 May 2024
Orbit: 673 x 676 km, 98.0° (Epoch: 17 June)

Event Time Altitude Azimuth Distance (km) Brightness Sun altitude
Rises 02:58:26 0° 11° (N) 3,040 6.6 -7.1°
Reaches altitude 10° 03:00:42 10° 8° (N) 2,121 5.7 -6.8°
Maximum altitude 03:05:15 61° 289° (WNW) 768 2.4 -6.3°
Drops below altitude 10° 03:09:47 10° 209° (SSW) 2,102 4.2 -5.7°
Enters shadow 03:10:52 - 207° (SSW) 2,539 4.6 -5.6°
